RH
12 11 11 12 13 14 16 18 21 21 22 22 21 19 16 14 15 16 15 12 7 18 57 92 100 97 98 100 100 100 100 100 101 101 100 100 100 100 102 101 101 101 93 84 85 87 85 92 101 102 97 98 102 101 99 100 100 99 100 99 100 101 98 91 77 58 44 39 42 47 48 48 50 60
12 12 12 12 13 14 16 18 20 22 21 22 22 20 19 16 14 15 16 15 11 9 28 66 92 98 98 98 99 100 101 100 100 101 100 99 99 100 102 101 96 96 95 89 86 88 86 87 95 101 99 99 103 102 99 100 100 99 99 99 101 101 97 97 98 91 79 64 52 45 41 42 45 47
13 13 12 12 14 15 16 17 20 22 22 22 23 22 21 19 16 16 15 16 15 11 12 32 63 87 96 96 96 97 100 101 100 100 99 97 98 101 101 99 93 88 89 91 91 92 90 85 87 96 101 99 98 98 99 100 99 100 100 99 99 101 99 96 97 99 99 94 85 73 61 52 49 48
13 13 13 12 13 14 16 17 19 21 22 22 23 23 22 21 19 17 16 16 17 15 11 13 28 56 81 91 93 94 97 100 100 100 100 97 97 100 101 100 95 87 85 89 92 95 96 92 87 91 99 102 97 94 98 100 100 100 100 100 99 99 100 98 96 96 98 100 101 98 92 82 73 64
14 14 13 13 13 14 16 17 18 20 22 23 23 24 24 22 21 20 17 16 17 16 14 12 13 26 50 73 87 91 93 98 101 100 100 99 99 99 100 102 99 89 84 87 91 95 99 100 96 93 96 103 101 95 95 100 101 100 99 101 100 98 99 100 99 99 99 99 101 101 101 99 95 90
16 15 14 13 13 14 16 18 18 20 21 22 24 24 25 24 24 23 20 17 17 17 16 14 12 14 24 43 66 81 89 95 99 100 100 99 100 100 99 102 100 87 78 81 87 93 96 98 100 100 98 100 102 98 95 97 101 101 100 100 100 100 99 101 101 100 100 100 102 102 100 97 97 97
17 17 15 14 14 15 16 18 18 20 22 22 24 25 26 26 26 24 22 19 17 17 16 15 14 13 14 21 37 58 75 86 94 99 102 100 99 101 100 101 100 88 77 74 78 86 92 91 92 98 100 101 102 100 96 94 97 100 100 100 99 99 100 101 102 102 101 100 100 101 100 99 98 97
19 19 17 15 14 15 16 18 19 21 23 23 24 26 26 27 27 25 24 22 20 19 17 16 15 13 13 13 19 35 53 70 82 91 100 103 101 99 99 101 101 93 82 75 74 80 85 84 83 88 96 101 102 102 99 94 92 94 98 100 99 98 99 101 100 100 101 101 101 100 100 100 100 100
20 21 19 16 14 15 16 19 21 22 25 25 26 27 27 27 27 27 27 25 23 22 19 18 17 15 14 12 12 19 33 51 66 77 88 100 103 99 96 98 101 100 92 81 75 77 80 80 78 80 89 98 101 102 101 96 91 89 92 97 99 99 100 100 100 101 102 100 99 100 100 99 100 100
22 23 22 17 15 16 16 19 22 24 26 28 29 29 29 28 29 30 30 28 25 24 23 21 19 17 15 14 12 12 18 32 49 63 73 85 97 101 97 95 98 102 101 91 80 77 80 80 78 78 84 92 97 100 102 99 93 89 88 89 92 97 100 101 101 101 100 98 97 100 100 99 100 100
23 24 25 20 16 16 16 18 23 26 28 30 31 31 31 30 31 32 32 31 28 26 25 24 23 20 17 14 12 11 12 18 31 47 59 69 82 94 99 97 95 98 103 101 91 83 83 83 80 78 81 89 95 96 98 97 91 88 88 87 85 87 93 100 103 101 100 98 97 99 101 100 99 100
26 26 27 24 18 16 17 18 22 26 28 31 32 33 34 33 33 33 32 32 31 30 28 27 25 24 21 17 14 11 10 12 17 29 44 56 66 78 90 96 96 95 97 101 99 93 92 91 86 81 79 83 91 97 98 96 90 83 82 84 85 83 85 93 99 99 99 101 99 99 100 100 100 100
29 28 29 28 21 17 17 19 22 25 27 31 32 32 33 32 30 30 29 29 30 30 31 30 27 26 25 22 18 13 10 9 11 17 28 41 52 63 73 83 91 95 95 97 98 96 95 97 96 91 84 80 84 91 96 98 96 88 78 75 79 82 82 87 94 97 98 100 101 99 99 99 99 100
32 31 31 31 26 19 18 19 21 25 26 28 29 29 29 29 28 28 28 28 29 30 30 31 30 28 27 25 22 18 13 8 8 10 15 24 37 49 59 67 75 86 93 95 98 96 94 96 99 99 96 90 87 87 89 93 98 98 91 78 71 72 74 79 86 91 95 100 101 100 99 99 99 100
36 35 32 32 30 22 18 19 21 24 25 26 26 27 27 27 27 28 28 30 32 33 34 34 33 31 29 28 26 23 19 12 7 7 9 13 22 32 44 54 61 69 79 87 93 96 94 92 94 99 101 99 96 94 90 89 91 96 99 92 79 71 68 69 74 77 81 89 98 101 99 98 100 100
39 38 34 33 34 28 20 19 21 23 24 26 26 27 27 27 26 25 25 27 31 36 39 39 37 36 35 33 30 27 24 19 11 7 6 7 12 18 28 39 48 56 64 72 80 88 92 91 88 92 99 100 100 99 96 93 90 89 92 94 91 85 76 70 71 72 70 71 82 97 101 99 100 100
42 41 36 34 35 34 25 19 19 22 23 25 26 26 27 26 25 24 23 27 32 36 40 42 43 44 42 39 36 31 26 22 16 10 6 4 6 10 16 24 33 43 51 58 65 72 81 87 86 85 90 95 98 100 99 98 96 93 90 90 91 94 92 83 76 74 71 65 66 78 91 99 102 101
45 44 40 37 36 37 32 23 19 21 22 23 24 24 24 23 22 23 26 33 39 41 43 45 48 51 50 47 43 36 29 24 19 14 9 5 4 6 9 15 22 31 39 46 53 58 64 74 80 81 83 87 92 98 101 102 101 100 97 93 90 91 96 96 89 81 76 70 63 64 73 88 99 100
48 47 43 40 37 37 38 30 21 20 21 23 23 22 22 22 23 28 36 43 47 49 50 51 52 56 58 55 50 44 36 29 23 19 14 8 5 4 6 9 13 20 27 34 40 47 52 59 66 73 77 81 85 91 97 101 102 102 101 99 95 91 89 92 96 91 83 75 68 63 65 73 82 87
50 50 46 44 40 38 40 37 29 22 20 22 23 22 21 24 30 40 49 53 54 56 57 58 58 60 64 64 59 51 44 37 29 22 17 12 7 5 4 6 8 12 18 24 29 34 41 48 54 60 66 72 76 80 86 92 96 99 101 101 99 96 89 87 93 96 91 82 73 67 65 68 72 73
51 53 50 47 43 40 40 42 38 31 25 22 22 23 25 32 42 51 55 57 58 58 59 60 61 63 67 71 68 60 51 46 38 28 21 15 10 7 4 4 5 7 10 15 21 25 30 37 44 51 57 62 66 70 75 81 85 89 95 99 100 100 96 91 89 91 92 90 83 75 71 69 73 77
52 55 53 49 46 42 40 42 44 42 37 32 30 32 37 44 51 56 57 57 56 57 57 57 58 61 67 73 75 69 61 55 49 39 28 20 13 9 7 5 4 6 7 9 13 17 21 26 33 40 49 55 59 63 66 71 75 78 82 88 94 99 101 99 94 89 87 89 88 86 81 73 71 80
54 55 56 52 49 44 41 42 45 48 49 46 44 46 51 53 55 58 59 55 52 52 54 53 53 56 62 69 73 72 67 63 59 51 43 33 20 11 8 7 5 5 5 6 9 10 13 17 21 28 39 48 54 59 60 63 66 69 73 77 82 89 96 100 101 94 86 82 82 84 86 82 76 75
57 56 58 55 51 47 43 43 45 50 55 56 54 55 57 57 58 61 59 52 49 49 48 48 50 52 56 63 67 69 70 69 66 60 55 49 35 20 11 7 6 6 5 5 7 8 9 11 13 18 27 38 47 54 58 60 60 62 65 70 75 79 83 89 97 99 95 88 81 79 80 83 83 78
60 59 60 57 53 49 45 43 45 50 60 65 64 62 60 60 62 65 60 52 48 47 45 46 48 50 52 55 59 61 65 69 69 64 60 60 52 38 24 13 7 6 6 5 5 7 8 9 10 12 17 25 37 47 54 58 60 59 59 63 70 75 77 78 82 88 93 94 90 85 80 76 75 75
62 60 62 59 56 53 47 44 44 49 59 69 71 67 62 61 65 67 63 57 52 48 45 45 47 49 49 49 51 52 54 59 65 64 60 62 62 55 45 32 18 9 7 7 6 6 7 8 9 10 11 15 24 35 45 53 59 62 61 59 62 69 74 76 76 75 78 84 88 88 86 82 76 72
64 59 62 61 58 56 51 46 44 45 53 66 74 74 68 64 66 68 66 64 61 54 49 48 47 45 45 44 44 44 44 48 56 59 58 60 63 63 58 50 39 26 15 9 7 7 7 8 8 9 10 12 15 22 32 42 52 60 65 64 62 63 68 74 77 75 72 73 77 80 81 83 83 79
68 59 62 63 61 59 54 49 46 43 46 56 69 78 78 72 68 68 68 69 70 66 61 55 50 45 43 42 40 37 36 40 47 53 56 56 59 60 58 53 48 44 36 25 15 9 8 8 9 10 10 11 12 14 20 28 39 50 61 67 67 65 65 68 74 77 76 73 72 75 76 77 82 83
74 60 60 63 63 60 57 53 49 45 43 46 56 70 81 82 76 71 69 69 73 76 73 67 59 51 45 41 37 31 30 34 38 42 45 46 48 51 51 47 42 42 45 42 33 23 15 10 9 10 11 12 12 12 14 18 25 35 47 58 66 68 66 67 70 74 78 79 76 75 77 78 79 83
83 65 59 62 63 62 60 56 52 49 45 42 45 55 70 83 86 82 77 73 71 75 77 76 72 63 53 46 40 32 29 31 33 33 33 35 39 42 44 43 39 35 37 39 40 39 34 27 18 12 10 11 13 14 14 15 16 22 31 41 53 62 65 66 67 70 74 79 82 81 82 82 83 83
92 74 62 60 61 62 64 62 57 53 49 45 42 43 50 64 76 83 86 84 79 76 76 77 79 77 70 62 52 42 35 32 31 31 31 34 36 37 38 42 42 38 33 32 34 36 39 41 37 30 22 15 12 13 15 16 16 16 19 25 34 46 55 60 63 66 69 74 79 84 86 88 90 89
99 86 73 65 62 62 65 66 62 58 55 50 46 43 41 44 51 60 71 80 84 84 82 81 83 83 81 77 69 59 49 42 35 31 32 37 40 39 40 45 49 45 38 35 35 34 35 38 41 45 45 37 26 17 13 14 16 17 17 18 21 28 38 48 55 60 64 68 73 79 84 88 92 95
101 93 83 75 68 65 65 66 66 64 61 56 52 48 45 41 40 42 48 56 67 77 83 85 87 88 88 86 81 73 66 61 52 42 36 38 41 41 44 50 56 54 50 48 47 45 43 40 39 45 54 57 52 42 29 18 15 15 16 17 18 19 22 31 40 49 56 62 67 71 77 82 87 91
100 96 89 81 75 69 65 65 66 66 65 63 59 55 51 48 44 41 40 41 46 55 66 76 84 90 93 92 88 81 75 72 67 60 52 46 44 45 48 52 58 61 63 63 64 65 64 60 53 52 57 64 68 67 59 46 31 21 16 15 16 18 18 19 23 31 39 48 56 63 69 74 79 83
101 101 96 89 83 77 70 65 64 65 65 66 64 61 57 54 51 47 42 39 38 41 47 57 68 79 89 94 92 87 81 75 71 68 62 55 52 50 48 52 63 74 78 80 83 88 90 88 81 76 76 80 82 83 82 75 61 45 32 22 16 16 17 17 17 19 22 28 36 44 52 60 67 73
101 103 101 97 91 85 79 71 66 65 65 65 64 63 61 58 56 52 47 41 37 37 39 45 53 63 76 87 92 91 87 82 77 72 66 63 59 52 44 47 61 74 82 88 93 97 101 101 99 96 96 97 98 98 98 93 81 66 53 42 31 23 18 16 16 17 17 18 20 24 30 37 45 53
102 103 102 101 98 94 88 80 74 71 69 66 64 63 62 60 57 55 50 44 39 36 35 39 46 54 63 75 85 90 90 87 82 77 73 68 62 52 44 44 49 52 59 69 79 87 96 102 102 101 101 102 102 103 104 102 92 78 65 56 47 38 30 24 20 18 17 17 17 18 18 20 24 30
105 102 100 101 102 101 96 89 85 82 78 74 68 64 62 60 57 54 51 46 41 37 33 34 41 50 58 66 76 84 88 87 82 77 72 66 56 45 38 36 36 36 41 52 62 71 84 96 101 102 102 101 99 100 103 104 99 88 75 66 58 50 42 35 29 25 23 21 19 18 18 17 18 19
103 101 100 101 103 103 100 96 93 90 86 82 78 73 68 63 58 53 49 46 41 37 34 32 37 47 58 64 70 77 83 84 80 76 68 57 45 35 28 26 28 33 42 53 61 67 76 88 98 104 105 100 96 99 103 103 103 98 86 74 65 57 50 45 40 35 32 29 25 23 22 21 20 19
102 103 104 103 103 102 100 100 99 96 91 88 86 83 79 73 66 58 50 44 40 37 35 32 34 45 59 65 67 73 78 79 78 74 62 45 31 24 22 22 25 31 43 56 66 73 80 90 99 107 107 97 92 100 106 104 104 102 93 79 68 61 57 55 53 50 45 39 34 31 29 27 26 25
105 106 104 102 102 101 101 104 103 97 93 91 91 90 88 84 79 70 59 48 40 37 36 34 33 44 61 67 66 69 74 76 76 69 52 33 23 20 20 21 23 30 42 57 71 81 89 96 99 101 96 86 86 97 105 104 103 101 92 80 73 70 69 68 67 66 61 54 46 40 37 37 37 37
104 102 100 100 101 101 103 106 102 94 91 91 93 96 96 94 92 86 74 59 47 40 38 35 33 45 64 70 66 66 71 74 74 64 43 26 21 21 20 21 23 29 39 53 68 78 84 87 86 84 81 80 87 96 100 98 98 95 87 79 76 76 77 77 77 76 73 69 64 59 55 54 52 50
101 100 100 101 100 99 101 102 97 90 88 89 92 96 99 100 100 97 87 73 57 46 42 37 36 50 68 71 65 64 69 75 73 59 37 24 21 22 22 22 24 28 35 44 53 61 67 71 73 76 80 87 93 94 92 90 89 87 82 79 78 79 81 83 84 84 83 82 82 80 77 73 66 61
104 104 102 100 98 97 97 97 93 88 84 84 88 94 99 103 105 103 96 82 65 53 46 39 41 58 72 69 63 64 70 76 73 54 32 23 23 23 25 27 29 31 36 42 48 56 63 71 77 83 89 93 93 90 88 87 86 85 84 84 85 87 90 91 92 92 91 91 91 90 89 85 79 74
105 106 103 99 98 98 98 96 92 84 77 75 80 87 96 104 108 106 98 83 68 57 49 43 50 68 75 67 61 65 72 77 73 53 31 24 25 25 27 32 36 40 45 50 56 63 70 78 84 88 90 91 89 85 84 84 84 84 86 87 88 91 93 94 95 95 94 94 94 93 92 92 91 89
Wind_Speed
35 35 35 34 33 32 32 32 31 31 31 31 31 34 39 44 48 50 54 61 69 82 95 102 100 99 99 97 94 91 90 89 87 84 82 78 77 78 78 78 79 82 84 84 84 86 90 90 90 92 91 85 84 81 72 68 69 68 69 70 72 81 91 97 100 101 102 102 101 100 99 98 96 93
34 34 35 35 34 34 33 33 33 32 31 32 31 32 35 40 45 50 53 57 64 74 86 98 103 102 101 100 98 95 92 91 91 90 89 85 81 81 83 82 80 80 82 83 84 84 87 91 90 92 95 93 89 85 76 71 71 69 67 67 67 73 80 86 93 97 99 101 101 100 98 96 96 95
33 33 34 35 35 35 34 34 34 33 32 32 32 31 32 35 40 46 51 54 60 69 78 89 100 104 104 103 102 100 95 92 91 90 91 90 88 87 88 89 86 83 83 83 84 84 85 89 91 91 94 98 99 93 82 74 73 70 67 65 64 66 69 72 81 90 94 97 99 100 100 98 96 95
32 33 33 34 35 35 35 35 35 34 33 32 32 32 32 33 35 40 47 52 57 64 72 81 91 101 106 106 105 105 102 97 93 90 90 90 90 90 90 90 90 88 86 84 84 85 85 86 89 91 92 95 99 98 87 77 74 72 68 64 61 60 60 59 64 74 84 89 92 95 97 98 97 97
32 32 33 34 34 34 35 35 36 35 34 32 32 33 33 33 33 35 41 48 53 59 67 75 83 93 102 107 107 107 107 104 99 94 92 91 92 93 91 90 91 91 90 88 86 85 85 84 85 88 91 93 95 98 95 84 77 74 70 66 62 60 58 55 54 57 66 76 82 85 87 90 91 94
32 32 33 33 33 34 35 35 36 35 34 32 31 32 33 33 33 34 35 41 47 53 61 70 78 86 96 104 109 110 109 107 104 101 97 94 94 94 94 93 93 95 95 93 90 88 88 87 86 85 88 91 92 96 101 97 86 78 74 71 68 65 61 58 57 55 55 62 70 75 77 79 80 83
31 32 32 32 32 32 34 35 36 35 33 32 31 31 33 33 34 34 33 35 40 47 55 63 71 80 89 98 106 112 113 111 108 105 101 99 97 95 95 95 97 99 100 98 95 92 91 90 90 88 86 87 90 93 99 104 100 90 81 77 74 71 70 68 66 63 60 60 63 66 69 70 71 71
31 31 31 31 30 31 32 33 34 34 33 31 31 31 32 32 33 33 32 32 35 40 48 57 64 72 81 91 101 108 114 115 113 109 105 102 100 97 95 95 96 98 101 102 99 96 94 93 93 92 89 87 88 91 94 100 106 104 97 89 80 74 74 77 77 74 71 67 64 64 65 64 65 66
31 31 31 30 29 29 30 31 31 32 31 31 30 31 30 31 31 31 31 31 32 35 41 49 57 64 72 82 93 103 111 116 117 115 110 106 103 100 99 97 95 96 99 103 103 100 97 96 95 94 93 90 89 90 92 95 100 106 108 105 97 86 77 74 77 80 80 76 69 65 65 63 62 63
32 31 30 30 28 28 28 28 29 29 30 30 30 30 30 30 30 30 31 31 31 32 35 41 49 57 64 72 82 95 105 113 118 119 117 112 107 104 102 102 99 97 97 100 103 103 100 98 97 96 94 92 90 89 91 92 94 99 105 108 108 104 94 82 76 78 82 83 78 72 67 65 62 61
32 30 30 30 28 27 26 26 27 27 28 29 30 30 30 29 29 29 30 30 30 29 31 34 41 49 57 64 72 83 95 106 115 120 121 119 115 110 106 105 104 102 99 98 100 102 102 100 99 98 96 94 91 89 89 90 91 92 96 101 105 107 105 97 86 79 79 83 84 80 75 69 65 63
32 30 30 30 28 26 25 25 25 26 26 27 28 29 28 28 28 28 28 28 28 27 27 29 33 39 46 54 61 70 82 94 106 117 122 123 121 118 112 108 108 106 104 102 101 102 102 101 101 101 100 97 95 92 90 89 89 89 90 93 96 99 101 101 95 85 78 80 84 86 84 79 73 68
32 30 30 30 29 27 25 24 24 24 25 25 26 26 25 25 24 25 25 25 25 25 25 26 27 31 36 43 51 59 68 79 93 109 119 122 123 123 119 113 110 109 107 106 105 105 105 104 103 102 102 101 99 98 96 92 90 89 89 89 90 91 92 94 96 92 84 79 80 84 86 87 83 76
32 30 30 31 30 28 25 24 23 23 23 23 23 23 21 21 20 20 21 21 21 22 22 23 24 26 29 34 40 47 56 66 78 93 107 117 122 125 124 120 115 112 110 108 107 107 108 107 106 104 103 102 102 101 100 98 94 92 91 90 90 89 87 87 89 93 92 86 81 81 83 86 87 83
32 31 30 30 30 29 26 25 24 23 23 23 22 22 21 20 20 20 20 20 21 21 21 22 22 23 24 26 30 36 44 53 63 75 89 104 115 122 124 124 121 117 114 112 111 109 108 109 109 108 105 103 103 102 101 101 99 96 94 94 93 92 90 88 86 87 91 92 88 83 81 83 86 86
33 32 30 30 30 30 28 26 25 25 24 24 24 23 23 22 22 22 22 22 23 23 23 23 22 21 21 22 25 29 35 42 51 62 73 86 100 113 120 124 125 123 120 116 114 112 110 110 110 110 108 106 104 103 101 101 100 99 97 96 96 95 94 94 91 88 88 91 93 90 85 82 84 86
33 33 31 29 29 30 30 28 27 26 26 25 26 25 25 25 25 25 25 25 24 24 24 24 22 21 21 21 22 25 29 34 41 51 61 73 85 98 110 118 124 127 126 121 118 116 113 111 111 111 110 109 107 105 103 101 100 100 99 98 97 96 96 95 96 93 90 89 93 96 94 90 86 85
33 33 31 29 28 29 31 31 29 28 27 27 27 27 26 26 27 27 27 26 25 24 24 24 22 21 21 21 21 22 24 28 34 41 50 61 73 85 97 109 118 125 128 126 123 119 116 114 112 111 111 111 109 107 105 104 102 101 101 100 99 98 97 96 96 96 94 91 91 94 97 98 96 92
33 33 31 30 28 28 31 32 31 30 29 29 29 28 28 28 28 28 28 26 25 24 23 23 22 22 21 20 21 22 21 22 27 33 39 48 60 72 84 96 107 116 123 127 126 121 118 117 116 113 112 112 111 110 108 106 105 103 102 102 101 100 99 99 98 98 97 94 93 92 92 94 97 97
33 32 31 30 28 27 29 31 33 32 31 31 31 29 29 29 29 28 27 26 24 23 22 22 21 21 21 21 21 21 20 19 21 25 31 39 47 58 69 81 93 105 115 122 125 123 121 120 118 116 115 114 113 112 111 108 106 105 103 103 103 102 101 100 101 101 100 97 96 94 92 90 91 93
33 32 31 30 29 27 27 29 32 33 33 33 32 31 30 29 28 26 25 24 23 22 21 21 20 20 20 21 21 21 19 18 18 19 23 30 38 46 56 66 77 90 102 113 120 123 121 121 120 118 117 116 114 113 113 111 109 107 105 103 103 103 102 102 102 102 102 101 99 97 95 93 91 90
33 33 31 30 29 27 26 27 30 32 33 33 32 30 29 28 26 24 24 23 22 21 20 19 19 19 19 20 21 21 19 18 18 17 17 21 28 36 45 54 64 74 85 97 109 115 119 120 120 118 118 118 117 115 114 112 111 109 107 105 104 103 103 104 104 104 104 104 103 102 99 97 94 92
34 33 31 30 30 28 26 25 27 29 31 32 30 28 27 28 25 22 23 23 21 19 18 18 18 17 17 18 19 20 19 18 18 17 15 15 18 26 35 44 53 61 70 80 91 100 108 114 117 116 116 116 117 117 116 114 113 111 109 107 105 105 105 105 106 106 107 106 106 105 104 102 99 96
35 34 32 30 30 28 26 24 24 26 28 29 29 27 26 26 23 20 22 24 21 18 17 16 16 15 15 16 17 18 18 17 18 16 14 14 14 16 23 33 42 50 59 68 76 84 93 102 109 113 114 114 114 116 117 116 114 113 111 109 107 106 106 106 106 107 108 109 109 108 107 107 106 104
36 34 33 31 30 28 26 24 23 24 26 27 27 27 26 24 21 20 23 24 21 18 17 15 14 14 14 14 15 16 16 16 17 17 14 13 13 12 13 19 29 38 48 56 64 72 80 89 97 104 109 111 112 113 115 116 116 115 114 112 109 108 107 107 107 107 108 109 110 110 111 111 110 110
37 35 34 33 31 29 26 24 23 23 24 25 27 27 25 23 21 21 23 23 21 19 17 14 14 14 14 14 13 14 14 14 15 16 14 12 13 12 10 11 15 24 34 43 52 61 70 78 86 93 100 105 108 110 112 114 114 115 115 114 113 111 109 108 108 108 108 108 108 109 111 112 112 113
38 37 36 34 32 30 28 25 23 23 23 23 25 26 26 24 21 21 22 22 21 19 17 16 15 15 14 14 14 14 14 12 12 13 12 11 11 12 11 10 10 13 20 29 39 48 57 66 75 82 89 95 100 105 109 111 112 113 113 114 114 113 111 109 108 108 109 109 109 108 108 109 110 111
40 38 37 36 34 32 29 27 25 23 22 22 23 25 25 25 23 21 22 21 20 19 18 17 17 16 15 15 15 15 15 13 11 11 12 11 11 12 12 12 11 11 12 17 24 33 42 52 61 70 78 85 91 97 102 106 109 111 112 112 113 114 113 111 109 108 108 109 109 109 108 107 107 108
43 40 39 39 37 34 31 28 27 25 23 22 22 23 24 25 24 22 22 21 20 19 19 18 18 17 17 16 17 16 16 14 13 13 13 13 13 13 13 14 13 13 13 15 18 23 30 38 48 57 65 73 80 86 92 98 104 108 110 111 112 113 113 113 111 108 108 108 108 109 109 108 108 108
45 43 42 41 39 36 33 31 29 27 25 23 22 22 23 24 24 23 22 21 21 20 19 18 18 18 18 18 18 18 17 16 16 16 16 15 15 15 15 16 16 16 16 17 19 21 24 29 36 44 52 61 68 75 82 88 95 101 106 109 111 112 113 113 113 111 109 107 107 108 109 109 109 109
45 44 44 43 41 37 35 34 32 30 28 26 24 23 23 23 24 23 23 22 22 21 20 19 18 18 18 19 19 19 19 19 18 18 18 17 17 17 18 18 19 20 20 20 21 23 25 27 30 34 40 48 57 65 72 78 84 91 98 103 108 111 112 113 113 113 111 110 108 108 108 109 109 109
46 46 46 44 41 38 38 37 35 32 30 29 27 25 24 24 23 23 22 22 23 22 21 21 20 19 19 19 19 20 20 20 21 20 20 20 20 20 20 20 21 24 25 25 25 26 28 30 32 33 36 40 45 53 61 69 75 81 86 92 99 104 109 112 113 114 114 113 111 110 109 109 109 110
46 47 47 43 40 40 40 40 38 35 33 31 29 28 26 25 23 22 22 22 22 23 23 23 22 22 21 20 20 19 19 21 22 22 22 22 22 23 22 22 23 25 27 29 29 30 31 33 35 36 37 38 40 43 48 55 64 71 77 82 88 93 100 105 110 113 114 115 114 113 112 111 110 111
44 46 45 42 41 42 42 41 40 38 36 34 32 30 29 27 25 24 23 22 22 22 23 24 24 23 23 22 22 21 20 21 22 23 24 24 24 24 24 24 25 26 28 30 32 34 35 37 38 38 39 40 40 41 41 43 49 56 65 72 78 82 88 94 100 106 110 113 115 115 115 114 113 112
41 43 43 42 42 43 43 42 41 39 38 36 35 33 32 30 28 27 25 24 23 22 23 23 24 25 25 24 23 23 22 22 23 24 25 25 25 26 26 26 27 28 30 32 34 36 38 40 40 40 40 40 40 40 39 39 39 43 49 56 64 71 76 82 88 93 99 105 109 112 114 115 116 115
39 41 42 42 44 44 44 43 42 41 39 38 37 36 34 33 31 30 28 26 25 24 23 23 24 25 26 26 25 24 24 24 24 25 26 26 26 27 28 29 30 32 33 35 37 39 41 42 42 41 40 39 39 38 37 37 37 37 38 42 48 55 63 69 75 80 86 91 97 102 107 110 113 116
35 37 39 41 43 45 45 44 43 42 40 39 39 38 37 35 33 32 30 29 27 26 25 24 24 24 25 26 26 26 25 25 25 26 26 27 27 28 30 31 33 34 34 36 39 40 41 43 43 42 40 38 37 36 35 35 36 35 35 36 38 42 47 54 60 66 72 77 82 87 92 98 102 107
32 33 35 39 42 44 45 45 44 43 41 41 40 39 38 37 36 34 32 31 29 28 27 25 24 24 25 26 27 27 26 26 26 26 27 27 27 28 30 32 34 34 33 35 38 39 40 41 42 41 39 36 34 32 33 34 35 34 34 34 34 35 37 41 46 52 57 63 69 73 78 82 87 92
27 29 32 37 41 44 45 45 44 44 43 42 41 40 40 39 38 37 35 33 31 30 28 27 26 25 25 26 27 27 27 27 27 27 27 26 26 28 29 30 31 30 30 32 34 35 36 37 38 37 36 34 32 32 33 35 36 35 35 33 32 31 31 33 36 40 45 51 56 60 65 69 73 77
24 28 33 38 41 42 42 42 43 43 43 43 42 41 41 40 39 39 37 35 33 32 30 28 27 26 25 25 27 28 28 27 27 27 26 25 25 25 26 25 25 24 25 27 29 29 30 31 31 31 32 32 32 33 34 34 34 34 33 30 29 28 28 29 31 33 37 41 45 49 53 57 60 64
27 31 35 37 38 38 38 40 42 42 42 43 43 42 42 41 40 39 38 37 35 33 32 30 28 27 25 25 26 27 28 27 27 26 25 23 22 21 20 19 17 16 17 19 20 21 23 25 26 28 30 31 31 31 31 30 31 31 30 29 28 28 28 28 29 30 32 35 37 40 43 46 50 53
31 33 35 35 34 34 36 38 39 39 39 40 41 42 42 41 40 39 38 37 35 34 32 31 29 27 25 25 26 27 27 26 26 25 23 21 19 16 14 12 10 8 9 11 13 16 19 21 24 26 27 27 27 27 27 27 28 29 30 30 29 29 28 28 29 30 31 32 33 34 36 39 42 44
31 32 32 32 31 32 34 36 36 35 36 38 39 40 40 40 39 38 37 35 34 33 32 31 30 27 25 25 26 26 26 25 24 23 20 18 15 12 10 7 5 5 6 8 11 13 16 18 20 22 22 23 23 25 25 26 27 28 28 28 28 28 29 29 30 30 31 31 32 33 35 36 38 39
30 30 30 30 30 31 33 33 33 33 33 35 37 37 38 38 37 36 35 34 33 32 32 31 29 27 25 25 25 25 25 24 22 21 18 16 14 11 9 7 7 7 9 10 12 13 15 17 18 19 20 21 23 24 24 24 25 26 26 26 27 27 28 29 30 31 32 33 34 35 36 37 37 38
29 29 29 29 30 30 30 29 29 31 32 34 34 35 35 35 34 34 33 32 31 31 31 30 29 27 25 25 25 25 24 22 21 19 17 15 14 13 11 10 9 10 11 12 13 14 15 16 17 18 19 20 22 22 23 23 24 25 25 25 26 26 27 28 29 30 31 32 34 35 36 37 38 38
Wind_Direction
292 292 289 285 280 274 270 267 266 265 264 262 260 257 251 245 244 244 240 235 231 227 223 220 219 217 216 217 216 216 215 217 218 217 216 215 215 216 216 217 218 220 222 223 224 225 224 223 223 218 212 210 214 217 218 217 215 214 217 222 227 230 230 227 226 227 229 230 232 232 233 234 234 234
288 289 287 283 278 273 269 266 265 264 263 262 260 258 256 250 245 244 243 239 235 231 228 224 222 220 218 217 217 217 216 216 218 220 219 218 218 217 219 221 222 221 222 223 224 225 225 224 223 221 216 212 212 215 218 215 212 211 212 214 220 228 233 232 229 228 228 229 231 232 233 233 233 233
286 286 285 281 276 271 267 265 263 263 261 261 260 258 257 254 250 246 243 241 238 235 231 229 226 223 221 219 217 218 218 217 216 218 220 221 220 218 220 223 224 223 222 222 223 224 225 224 224 223 220 217 215 215 216 215 210 208 209 210 214 224 232 235 233 231 230 230 230 231 232 233 233 233
284 284 283 281 276 270 266 262 261 261 260 259 258 257 256 255 254 250 246 243 241 238 235 232 231 228 225 222 219 219 220 219 217 215 216 219 220 218 219 222 224 224 223 222 223 225 226 225 225 224 223 221 218 215 213 212 209 207 206 207 209 215 223 229 233 233 232 231 231 231 232 232 233 233
283 283 283 282 278 271 265 261 259 259 258 258 257 255 255 256 256 255 251 247 244 241 239 235 233 232 229 226 223 220 220 221 219 216 214 215 216 217 218 220 223 225 224 223 223 225 226 227 226 225 224 223 221 216 213 211 209 206 205 205 205 207 211 218 225 229 231 231 232 233 233 233 233 234
281 281 282 281 278 272 265 261 259 257 256 256 256 255 254 255 256 257 257 253 249 245 242 239 236 234 233 231 227 224 222 221 221 219 217 215 214 215 217 219 223 226 226 224 224 225 227 228 228 227 226 225 223 219 215 214 212 209 207 208 209 209 209 210 216 221 225 228 229 232 234 235 235 236
278 278 279 279 277 271 265 261 259 257 256 255 256 255 254 254 255 257 259 259 256 250 245 242 239 236 235 234 232 229 226 223 222 221 220 218 215 215 216 218 221 226 228 226 225 225 227 228 229 229 227 226 225 223 219 217 216 214 213 213 214 216 216 214 215 218 221 225 228 229 232 234 234 235
275 275 276 277 276 271 266 262 259 257 257 255 255 255 254 254 255 257 260 262 261 257 250 245 242 240 237 235 234 232 230 227 225 223 222 221 219 216 216 216 218 223 227 228 227 226 226 228 230 230 230 228 227 226 223 220 219 218 218 218 217 217 220 222 222 223 223 226 227 228 228 230 231 232
273 273 274 275 275 272 268 264 260 258 257 256 255 255 255 255 256 257 260 262 263 261 256 249 245 243 240 237 236 235 233 230 228 225 224 224 222 219 216 215 215 218 223 226 228 227 227 228 229 230 231 230 229 228 226 225 222 221 221 222 221 220 221 223 227 229 229 228 225 224 224 225 227 230
271 271 272 273 273 272 269 266 262 260 258 256 255 255 255 256 257 258 259 261 263 264 261 254 249 245 243 240 237 236 235 233 231 228 226 225 225 223 219 216 216 216 218 222 226 228 227 227 228 229 230 231 231 229 228 227 226 224 224 224 225 225 225 225 227 230 231 229 225 221 220 220 222 226
269 269 269 270 271 270 268 266 264 262 259 257 255 255 255 255 256 258 259 260 262 265 266 261 255 249 246 243 241 238 236 234 233 231 229 226 226 225 223 219 217 217 218 220 223 226 227 227 228 229 229 230 231 231 229 228 228 227 227 226 227 227 227 228 228 226 226 227 225 222 220 218 219 222
266 267 267 267 268 268 266 264 264 263 260 257 256 255 255 256 257 258 259 260 261 264 267 267 262 256 251 247 245 242 238 235 234 233 231 229 227 227 226 224 221 220 220 220 222 224 226 227 228 229 229 229 230 231 231 230 229 229 228 228 228 229 228 229 227 224 222 223 225 224 224 223 220 220
264 264 264 263 264 264 263 262 262 262 260 258 256 255 255 256 258 260 260 261 262 263 266 269 269 265 258 252 248 245 242 238 235 234 232 231 230 228 227 227 225 223 222 222 222 223 225 227 228 228 229 230 230 230 231 232 232 231 230 229 228 229 229 229 228 225 222 222 224 226 227 227 224 223
261 261 262 260 259 260 260 258 258 258 257 255 253 252 253 254 257 260 263 264 265 265 267 270 273 273 269 261 254 250 246 242 238 235 233 232 232 230 229 228 227 226 225 224 223 223 224 226 228 228 228 230 231 231 232 232 233 233 234 232 231 229 229 230 229 228 227 225 224 226 227 228 227 226
259 259 259 258 256 256 256 254 253 253 252 252 251 250 250 253 256 260 265 267 268 268 269 270 273 278 278 273 264 256 250 246 242 238 234 233 232 232 231 230 229 229 228 227 226 224 223 224 226 228 228 228 230 231 232 233 233 233 234 235 235 234 233 232 232 232 231 229 226 225 225 226 226 226
258 257 258 258 254 252 252 251 249 248 248 248 249 250 251 254 258 263 266 269 269 268 269 271 274 278 281 280 273 264 256 250 245 240 236 233 232 232 231 230 230 230 229 228 228 227 226 224 224 226 228 229 229 230 232 233 234 234 234 235 237 238 238 237 236 235 235 233 230 227 224 223 224 224
256 256 256 257 254 250 249 249 247 246 246 246 248 250 252 256 260 265 268 269 268 268 268 270 273 275 277 278 278 273 264 255 248 243 239 234 232 231 230 230 230 231 231 230 229 229 228 227 225 225 227 229 229 230 231 232 234 235 235 235 236 238 239 240 240 239 238 236 234 231 228 226 224 224
253 255 255 256 255 250 247 247 247 246 245 246 249 251 255 260 264 268 270 268 267 267 267 269 271 271 272 274 277 279 276 266 255 247 242 237 233 231 230 230 230 230 231 231 231 230 230 230 229 227 226 228 230 230 231 231 233 234 235 235 236 236 237 239 241 242 241 238 235 234 232 230 229 228
250 253 254 255 256 252 248 246 246 246 246 247 250 253 257 264 268 270 270 267 265 265 265 267 268 268 269 271 273 278 283 278 266 254 245 240 236 232 231 230 230 229 230 231 232 232 231 231 230 230 228 228 229 230 231 232 232 233 234 235 236 236 237 237 239 241 242 240 237 235 234 233 232 231
247 250 252 255 256 255 251 248 247 246 247 248 251 255 260 265 268 267 267 266 265 264 264 265 266 266 267 268 270 275 282 284 278 264 251 243 238 234 231 230 229 229 229 229 230 231 232 232 231 231 230 230 230 230 231 232 232 233 233 234 235 236 236 236 236 238 240 240 238 236 235 234 234 232
243 247 250 252 255 255 253 251 249 247 248 249 252 256 260 263 264 264 263 261 261 262 263 264 265 265 265 266 268 272 277 283 286 279 262 249 241 236 232 230 229 229 229 228 229 229 231 232 232 232 231 231 231 231 231 232 233 234 234 234 234 235 235 236 236 236 237 239 239 238 237 236 235 234
238 243 246 249 252 254 253 252 250 249 249 250 252 255 258 259 260 260 259 256 255 258 262 264 265 265 263 264 266 269 273 278 285 289 282 264 248 239 234 231 230 229 229 229 228 228 229 231 232 232 232 232 232 232 232 232 233 234 235 235 234 234 235 235 235 236 237 238 238 239 239 237 236 235
234 239 242 246 249 252 253 252 251 250 250 251 251 251 253 255 256 254 253 252 251 254 259 262 265 266 265 263 263 266 269 273 278 287 296 290 268 248 238 234 231 230 229 229 228 228 228 230 231 231 232 232 232 232 233 233 233 234 236 236 236 235 235 235 235 236 237 237 238 239 239 238 237 236
231 235 239 242 246 249 251 252 252 251 251 251 251 249 249 253 253 248 246 249 249 249 255 260 264 266 265 262 262 264 266 269 272 278 288 297 293 271 250 240 234 231 229 229 228 228 228 229 230 230 231 231 231 232 232 233 233 234 235 237 237 237 237 237 237 237 237 237 238 238 239 239 238 238
228 232 236 239 242 245 248 250 251 251 249 249 250 249 248 249 248 242 243 247 247 247 251 256 263 266 264 261 259 259 261 263 267 272 277 282 292 295 276 253 241 235 232 230 228 228 228 229 229 230 230 231 231 232 232 232 233 233 234 236 237 238 238 238 238 238 238 238 238 239 239 240 240 241
226 228 233 237 239 242 244 246 249 249 248 247 249 250 249 247 242 238 240 244 245 246 249 251 256 262 263 263 261 259 259 258 261 269 273 273 278 288 292 277 255 243 237 234 231 229 228 229 229 230 230 230 231 231 232 232 233 233 234 235 236 238 238 238 239 239 239 240 240 240 240 241 242 242
226 225 229 234 236 239 241 242 245 246 246 246 248 251 252 249 242 235 235 239 242 244 247 248 250 254 259 264 265 264 263 262 260 266 271 271 269 271 274 274 265 252 244 239 236 234 232 231 231 231 231 231 231 231 232 232 232 233 233 234 235 236 238 238 239 239 240 240 241 241 242 242 242 243
227 224 226 230 233 235 237 239 242 243 244 244 245 248 251 252 247 239 234 234 237 240 243 246 249 251 255 260 264 266 267 268 266 265 266 263 261 261 262 261 257 252 246 241 239 237 236 235 233 232 232 232 232 231 232 232 232 232 232 233 234 235 236 237 238 239 239 240 240 241 242 242 243 243
227 224 224 227 230 232 234 236 239 241 242 243 243 245 247 250 250 246 240 235 234 237 240 244 249 252 254 256 260 263 266 268 267 264 262 261 259 259 260 260 257 251 244 241 239 238 237 237 236 235 234 234 234 233 233 232 232 232 232 232 233 233 234 236 237 238 238 238 239 240 241 241 242 242
228 225 225 226 227 229 231 233 235 237 239 240 241 243 244 246 248 248 247 244 240 238 239 242 247 253 256 257 258 260 261 263 264 263 262 261 260 258 258 259 259 255 249 244 242 240 237 237 237 237 237 236 235 235 234 234 234 233 233 232 232 232 233 234 235 236 237 238 238 238 239 240 241 241
229 228 227 227 226 226 228 231 233 235 236 238 239 240 242 243 245 246 247 248 248 246 245 245 247 251 256 259 261 262 261 261 262 262 262 262 260 258 256 256 257 256 252 248 245 243 241 239 237 237 237 237 236 236 235 235 235 235 234 234 233 232 232 233 234 235 236 237 237 237 238 239 240 240
229 229 230 229 227 225 227 230 231 232 234 237 238 239 240 242 244 245 246 247 249 250 251 252 252 253 255 258 262 265 266 266 265 263 262 262 260 258 256 255 255 256 255 252 248 246 244 242 240 237 236 236 236 236 236 235 235 235 235 235 235 234 233 233 233 234 235 236 237 237 237 238 238 239
229 231 233 232 229 227 227 229 230 231 233 235 238 240 242 243 244 246 247 247 248 250 252 254 256 258 258 260 262 265 268 270 270 268 266 265 263 262 260 257 255 255 257 256 254 250 247 245 243 241 238 236 236 236 236 235 236 235 235 235 235 235 235 234 234 234 235 236 236 237 238 238 238 238
229 231 234 234 232 231 230 230 230 231 232 234 236 239 242 244 246 247 249 249 250 250 251 253 254 256 259 262 264 266 268 271 272 272 271 270 268 268 267 264 261 258 258 258 257 255 251 248 245 243 241 238 237 236 236 236 235 235 235 235 235 235 235 235 235 235 235 235 236 237 237 238 238 238
230 231 233 234 234 234 234 232 231 232 233 234 236 238 240 243 246 248 249 251 252 253 253 253 253 254 255 258 261 265 269 272 274 275 274 274 273 272 271 270 269 266 263 260 257 254 252 249 246 244 242 240 238 237 237 236 236 236 236 235 235 235 235 235 235 235 236 236 236 237 238 238 238 239
229 229 231 233 234 236 237 236 234 233 233 235 237 238 240 242 244 247 249 251 253 254 255 255 253 253 253 254 256 260 265 270 274 277 277 277 276 276 276 276 275 272 267 262 256 251 248 247 246 244 242 240 238 237 236 236 236 236 235 235 234 234 234 234 234 234 235 236 237 237 238 238 239 239
229 229 230 232 234 236 238 239 238 236 235 236 237 239 241 242 244 246 248 250 253 255 256 257 256 255 253 252 253 256 261 267 272 275 277 277 277 279 281 282 280 276 269 262 257 252 246 244 243 243 241 239 236 235 235 235 235 235 235 235 234 234 233 234 234 235 235 236 236 237 238 238 239 240
230 230 231 231 233 235 238 239 239 239 238 238 238 239 241 243 245 246 248 249 252 255 258 260 261 260 257 255 254 255 259 265 270 274 277 277 279 282 284 283 280 277 269 261 255 251 246 242 240 239 239 237 233 232 233 233 233 233 233 233 232 232 232 232 233 234 235 235 236 237 237 238 239 240
230 231 232 232 232 235 237 238 239 239 240 240 241 241 241 243 245 246 248 249 252 255 258 260 262 263 261 257 255 256 259 264 270 275 278 279 281 284 285 283 280 275 268 259 254 250 246 241 237 235 234 231 228 227 228 229 229 230 230 231 232 233 233 233 232 232 233 234 235 236 237 238 238 239
227 228 230 231 233 235 237 238 238 239 240 241 242 243 243 243 244 246 248 249 251 253 256 259 261 262 262 258 255 256 258 263 269 274 277 279 283 285 285 284 282 276 267 259 254 250 245 239 233 228 225 222 221 223 226 227 229 231 233 234 235 235 235 234 233 233 233 234 234 235 236 237 238 239
222 225 229 232 234 236 237 237 238 239 239 240 242 243 244 245 245 246 247 248 250 252 254 257 259 261 261 258 255 255 257 262 268 273 276 280 284 285 285 285 283 276 265 256 249 243 237 230 222 216 215 216 218 223 226 228 230 232 234 233 233 234 234 234 233 234 235 236 236 236 236 236 236 237
224 226 230 233 235 236 236 237 238 239 239 239 241 242 244 245 246 246 246 247 248 250 252 254 257 259 259 257 255 254 256 261 267 272 275 279 279 278 279 279 274 261 245 236 230 224 219 215 210 208 210 214 218 222 225 227 228 229 231 231 231 232 234 234 235 235 236 238 239 239 238 238 237 237
231 231 233 234 235 236 236 237 239 239 238 239 240 241 243 244 245 246 246 246 246 247 248 251 254 256 256 255 254 253 255 260 266 269 272 273 269 263 259 253 235 203 187 189 195 198 200 201 202 205 209 215 219 222 225 226 228 229 231 232 232 233 234 235 237 237 238 239 239 239 239 239 239 238
235 235 235 235 236 237 239 240 241 240 239 239 240 240 241 243 243 244 244 244 243 244 245 247 250 253 253 252 251 251 253 257 263 267 267 262 253 242 234 222 203 183 174 176 182 189 194 199 204 209 214 218 222 224 226 226 228 229 231 232 234 235 236 238 239 239 240 240 240 240 239 239 238 238
236 236 236 236 238 240 242 243 241 239 238 238 239 239 240 240 241 241 241 241 240 241 242 244 246 249 249 248 247 248 250 254 259 262 260 251 238 228 221 213 204 195 190 191 195 199 203 208 213 217 221 224 225 226 226 226 227 228 230 233 235 237 239 241 242 243 243 243 242 242 241 240 239 238